Location: Unspecified
(0.0000°N, 0.0000°E)
Time: 18:22:19
(UTC+00:00)

IRIDIUM 138 - Visible Passes

Search period start: 11 December 2025 00:00
Search period end: 21 December 2025 00:00
Orbit: 776 x 779 km, 86.4° (Epoch: 11 December)

Date Brightness Start Highest point End Pass type
(mag) Time Alt. Az. Time Alt. Az. Time Alt. Az.
17 Dec ? 20:16:53 10° SSE 20:17:09 11° SSE 20:17:09 11° SSE visible
19 Dec ? 20:50:28 10° SSW 20:51:42 17° SSW 20:51:42 17° SSW visible
20 Dec ? 20:16:45 10° S 20:18:47 24° S 20:18:47 24° S visible
